Location: ????????
(60.4333°N, 46.4710°E)
Time: 04:07:17
(UTC+00:00)

H-2A R/B - Pass Details

Date: 25 November 2020
Orbit: 733 x 836 km, 98.2° (Epoch: 19 January)

Event Time Altitude Azimuth Distance (km) Brightness Sun altitude
Exits shadow 14:00:16 - 122° (ESE) 2,970 4.7 -13.2°
Reaches altitude 10° 14:01:53 10° 115° (ESE) 2,383 4.1 -13.4°
Maximum altitude 14:06:30 32° 54° (NE) 1,327 2.7 -13.9°
Drops below altitude 10° 14:11:02 10° 353° (N) 2,335 4.4 -14.5°
Sets 14:13:31 0° 343° (NNW) 3,249 5.3 -14.8°
